This demonstration page uses our WeatherBlox Daily Observations layout. Learn more.

Left ArrowRight Arrow

41.86663, -103.66717

Hourly Observations for January 17, 2017

Temp ( °F °C ) Dew Point ( °F °C ) Humidity (%) Winds ( mph kmh ) Pressure ( in mb ) Visibility ( mi km ) Precip ( " mm )
12:53 am 00:53 Clear 19 -7.2 13 -10.6 77 77 NW 8 13 30.15 1021 10 16 0.00 0.00
1:53 am 01:53 Clear 19 -7.2 13 -10.6 77 77 NNW 12 19 30.15 1021 10 16 0.00 0.00
2:53 am 02:53 Clear 18 -7.8 12 -11.1 77 77 NW 8 13 30.15 1021 10 16 0.00 0.00
3:53 am 03:53 Clear 17 -8.3 11 -11.7 77 77 W 5 7 30.14 1021 10 16 0.00 0.00
4:53 am 04:53 Clear 13 -10.6 9 -12.8 84 84 NW 6 9 30.17 1022 10 16 0.00 0.00
5:53 am 05:53 Clear 14 -10 9 -12.8 80 80 N 3 6 30.16 1021 10 16 0.00 0.00
6:53 am 06:53 Clear 14 -10 8 -13.3 77 77 NNE 5 7 30.16 1022 10 16 0.00 0.00
7:53 am 07:53 Sunny 13 -10.6 7 -13.9 77 77 NNW 5 7 30.19 1022 10 16 0.00 0.00
8:53 am 08:53 Sunny 19 -7.2 13 -10.6 77 77 N 3 6 30.19 1022 10 16 0.00 0.00
9:53 am 09:53 Sunny 27 -2.8 16 -8.9 63 63 NW 3 6 30.15 1021 10 16 0.00 0.00
10:53 am 10:53 Sunny 34 1.1 18 -7.8 52 52 Calm 30.12 1020 10 16 0.00 0.00
11:53 am 11:53 Sunny 40 4.4 18 -7.8 41 41 Calm 30.07 1018 10 16 0.00 0.00
12:53 pm 12:53 Sunny 43 6.1 21 -6.1 42 42 NNW 7 11 30.04 1017 10 16 0.00 0.00
1:53 pm 13:53 Sunny 47 8.3 19 -7.2 33 33 NW 7 11 30.02 1017 10 16 0.00 0.00
2:53 pm 14:53 Sunny 48 8.9 20 -6.7 33 33 N 3 6 30.03 1017 10 16 0.00 0.00
3:53 pm 15:53 Sunny 48 8.9 19 -7.2 32 32 Calm 30.03 1017 10 16 0.00 0.00
4:53 pm 16:53 Clear 41 5 17 -8.3 38 38 W 10 17 30.06 1018 10 16 0.00 0.00
5:53 pm 17:53 Clear 38 3.3 15 -9.4 39 39 W 9 15 30.08 1019 10 16 0.00 0.00
6:53 pm 18:53 Clear 37 2.8 13 -10.6 37 37 WNW 12 19 30.08 1019 10 16 0.00 0.00
7:53 pm 19:53 Clear 36 2.2 12 -11.1 37 37 WNW 10 17 30.09 1019 10 16 0.00 0.00
8:53 pm 20:53 Clear 30 -1.1 14 -10 51 51 WNW 7 11 30.09 1019 10 16 0.00 0.00
9:53 pm 21:53 Clear 29 -1.7 15 -9.4 56 56 NW 10 17 30.06 1018 10 16 0.00 0.00
10:53 pm 22:53 Clear 28 -2.2 15 -9.4 58 58 NW 8 13 30.04 1017 10 16 0.00 0.00
11:53 pm 23:53 Clear 26 -3.3 15 -9.4 63 63 Calm 30.03 1017 10 16 0.00 0.00

Powered by AerisWeather